Wind_Speed
25 27 28 28 28 29 29 29 28 27 27 26 24 24 23 23 24 24 23 24 23 22 21 18 17 17 17 16 15 13 13 13 13 12 11 10 9 8 9 8 8 8 7 6 8 9 6 5 7 6 5 5 5 5 7 6 6 6 6 8 9 7 7
25 27 28 28 29 29 29 29 28 28 28 27 25 25 24 24 24 24 23 24 23 23 21 19 18 17 16 16 15 14 13 12 11 11 11 11 10 9 9 9 9 9 8 8 8 8 6 6 7 7 5 5 5 4 5 5 6 6 5 6 7 6 6
26 27 29 27 29 30 30 30 28 28 29 27 26 25 25 25 25 25 24 23 23 23 22 20 19 18 17 16 16 15 14 13 12 12 12 13 13 12 11 10 9 8 9 9 7 7 8 8 8 8 6 6 6 4 4 5 6 7 6 5 6 5 4
27 26 28 28 29 29 29 30 29 28 29 28 27 26 25 26 26 25 23 23 23 23 23 22 20 19 18 17 17 16 15 15 14 13 12 13 14 13 13 11 10 9 10 9 7 6 7 7 8 8 6 7 8 6 5 6 6 7 7 6 6 5 4
26 23 22 24 28 28 28 30 30 29 29 28 27 26 26 25 26 25 23 23 23 22 23 22 20 19 18 18 17 16 16 16 16 14 12 12 11 12 13 12 10 10 9 8 8 8 7 7 7 6 6 7 7 7 6 6 6 7 6 6 6 6 5
25 24 21 22 27 30 29 29 29 29 29 28 27 26 27 26 24 24 22 21 22 22 21 21 20 19 18 17 17 16 16 17 17 16 14 12 11 11 12 10 9 9 8 8 8 8 8 8 7 6 7 6 6 7 6 6 5 5 5 6 6 7 6
25 25 26 26 29 30 30 29 29 29 28 28 28 26 27 26 23 23 22 21 21 21 20 20 19 19 18 16 16 16 15 15 16 17 16 15 13 12 11 10 10 10 10 10 9 9 9 9 8 8 8 6 7 8 6 6 6 7 6 5 6 7 7
24 26 28 30 27 25 27 25 24 28 27 26 26 25 26 26 24 23 21 21 21 19 19 20 19 18 18 16 15 15 15 15 15 15 15 15 14 12 11 11 12 12 11 11 11 10 10 10 9 10 10 8 8 9 7 7 8 8 8 7 7 7 7
24 23 19 20 18 19 24 20 19 26 26 21 23 25 25 22 22 25 23 21 22 20 19 19 19 18 18 18 16 16 16 15 15 15 14 14 14 13 12 12 12 12 12 11 11 11 11 10 9 10 11 9 9 10 9 8 9 9 9 9 9 7 7
25 19 13 14 14 18 22 17 16 23 24 22 22 24 24 19 18 23 24 22 22 21 20 19 19 19 18 18 18 17 17 16 15 15 15 14 14 13 13 13 12 12 12 11 11 11 12 12 11 11 12 12 12 12 12 11 11 10 9 10 10 9 8
25 17 15 17 16 18 21 18 18 22 24 25 23 21 21 18 16 19 21 21 21 20 20 19 19 20 19 19 18 16 16 16 15 15 14 14 15 14 13 13 13 13 13 13 12 12 13 13 12 12 14 15 14 13 13 13 13 11 10 10 10 10 9
23 18 18 19 20 21 21 20 21 21 21 25 25 22 19 19 19 19 19 19 19 16 17 19 19 20 20 20 19 17 16 15 15 15 15 15 16 16 14 13 13 14 14 14 13 13 13 13 13 13 15 16 15 14 14 14 14 13 12 11 11 11 10
26 24 21 20 23 24 22 21 22 20 19 22 24 22 20 21 22 22 19 18 17 15 16 19 19 19 20 19 18 18 18 17 16 15 14 15 17 17 17 15 14 14 14 14 14 14 13 13 14 15 15 16 15 14 14 14 14 14 13 12 12 12 12
27 27 25 23 25 26 23 22 22 21 21 22 21 19 19 20 21 20 17 16 17 17 18 18 19 18 19 18 17 18 18 17 16 16 16 16 17 18 19 19 18 15 13 13 14 14 14 14 14 15 15 16 15 14 14 14 15 14 14 14 13 12 13
25 25 25 26 27 27 26 26 26 24 21 19 20 20 18 18 17 16 15 14 15 17 16 16 17 17 17 18 18 19 18 18 17 17 18 17 17 18 18 19 21 20 16 14 14 14 14 14 15 15 15 16 16 16 14 14 16 15 14 14 14 13 12
21 23 23 23 24 25 25 24 23 23 18 16 20 20 17 16 17 17 18 16 14 14 13 14 15 16 17 16 16 17 18 19 19 19 20 20 20 20 18 18 19 21 21 20 18 17 16 15 16 16 15 15 16 17 15 14 15 16 14 13 14 13 11
14 16 18 19 20 19 19 17 15 15 13 12 15 17 16 16 18 19 20 20 17 16 17 16 14 14 16 17 16 16 17 18 20 21 22 22 22 22 21 20 19 20 21 22 21 21 20 19 19 18 15 14 14 16 17 17 16 16 15 14 15 15 14
15 14 14 15 16 16 15 14 12 11 11 9 9 11 11 12 14 15 15 16 17 16 17 17 16 15 15 16 15 14 15 15 17 19 21 22 23 23 23 22 22 21 22 22 22 22 22 22 21 19 17 15 15 15 14 16 17 17 17 17 17 18 17
15 14 14 15 15 15 15 14 13 12 11 10 9 9 11 11 12 12 11 11 12 13 15 17 19 19 19 19 16 15 15 15 16 17 20 21 22 22 23 23 23 23 23 23 23 23 23 23 22 22 20 20 21 19 15 14 16 17 18 18 19 19 18
12 13 14 16 16 15 15 14 12 12 11 10 7 7 11 13 12 11 11 10 10 11 12 13 15 17 18 20 18 17 17 17 16 16 17 20 23 23 24 24 24 25 25 26 26 26 26 25 24 24 23 22 23 24 20 16 15 16 17 19 19 19 18
14 16 15 15 15 14 13 11 10 9 8 8 6 5 7 9 9 8 9 9 9 10 10 11 12 13 14 15 16 16 16 17 17 15 14 15 18 21 23 25 26 27 27 27 28 28 29 29 28 28 26 24 23 24 23 20 18 18 17 18 20 20 19
17 17 16 15 15 15 14 11 8 6 7 7 5 4 4 5 4 5 5 6 7 8 9 10 11 12 13 14 14 15 17 18 18 17 16 16 17 18 20 22 24 25 26 26 26 27 29 30 30 30 29 28 26 24 24 23 22 20 19 18 20 20 20
20 19 17 16 16 16 16 14 12 10 9 9 8 7 7 7 4 3 4 4 4 4 5 5 6 8 9 12 14 14 16 16 16 17 18 19 19 19 20 21 22 22 22 23 23 24 26 27 28 30 29 29 28 28 27 24 21 20 19 19 21 20 19
18 18 17 15 14 13 14 15 15 13 12 13 13 12 12 11 10 8 6 4 3 2 1 1 2 3 5 9 10 10 11 11 13 14 15 17 18 17 16 18 20 20 20 20 21 23 24 24 26 28 28 28 29 29 28 26 23 22 21 21 21 20 19
17 17 17 15 13 13 14 16 16 14 12 11 11 12 12 12 11 10 10 10 8 7 7 6 5 5 6 7 7 7 7 7 8 9 9 9 10 9 8 9 13 16 17 19 21 22 22 23 27 29 28 29 30 29 28 27 25 24 22 21 21 20 18
16 17 16 15 14 14 15 16 16 14 12 9 9 10 10 10 9 10 11 10 9 9 9 8 7 6 6 6 6 7 8 8 8 6 4 2 2 1 1 1 3 7 9 13 17 18 18 19 22 26 26 26 26 27 27 26 24 22 20 19 18 16 16
13 14 15 17 17 16 15 15 14 14 14 13 12 11 10 10 11 11 12 12 10 10 9 8 7 7 6 5 5 5 6 6 6 6 5 4 5 6 7 7 4 2 4 6 8 10 8 6 10 16 18 19 19 18 19 20 19 17 16 15 15 15 15
13 13 14 16 17 15 13 14 13 13 14 13 12 10 9 9 10 11 12 13 13 12 11 9 8 8 7 6 5 4 3 3 4 7 8 9 11 10 8 8 6 3 2 2 3 5 5 5 7 8 7 8 7 6 9 12 13 14 13 12 13 13 12
10 11 13 13 14 13 13 14 13 13 12 11 10 10 10 10 10 10 11 11 11 11 11 10 10 10 9 8 8 8 7 6 6 6 6 7 10 10 9 8 7 4 4 4 3 3 3 4 6 7 6 4 3 2 3 6 8 10 10 9 9 8 7
12 11 12 12 12 12 12 12 12 12 11 8 8 10 10 10 10 10 10 10 10 10 11 10 10 9 9 8 9 9 9 8 7 7 6 6 7 7 6 6 6 5 6 7 6 7 8 8 7 6 5 4 4 4 3 3 5 5 6 6 8 8 7
14 13 12 12 13 13 12 11 11 11 9 8 8 10 10 10 10 10 10 10 9 9 10 10 10 10 9 8 9 9 10 9 8 7 7 8 8 6 4 4 3 5 7 8 8 9 10 8 6 6 5 4 3 3 3 1 2 4 6 7 7 7 6
13 14 14 13 12 11 10 10 10 10 9 9 9 9 10 10 9 10 11 10 9 9 9 9 9 9 9 9 8 9 8 6 7 9 10 10 11 9 6 5 4 2 5 7 7 8 10 8 5 5 7 5 2 0 0 1 2 3 5 6 3 2 3
12 13 14 13 11 10 9 10 10 10 10 10 9 7 8 8 9 10 11 10 8 8 9 10 9 9 10 10 8 8 8 6 7 10 9 7 9 8 6 7 7 2 3 6 5 5 6 6 4 4 6 5 1 4 5 6 7 7 6 4 4 4 3
10 11 12 13 12 10 10 11 11 10 10 10 8 6 6 7 8 10 10 7 6 7 9 9 8 7 8 8 6 6 7 7 7 8 5 3 2 2 2 5 5 1 3 3 4 5 5 6 5 5 7 6 3 2 7 8 9 10 11 10 8 7 6
9 10 11 12 11 10 10 11 10 9 8 7 6 6 6 6 6 8 8 7 6 7 8 9 9 8 6 5 4 5 6 4 1 3 5 4 2 4 5 4 4 5 4 3 2 5 7 8 8 7 9 9 6 5 9 12 11 12 13 12 10 10 10
8 8 9 10 11 10 11 11 9 7 6 6 5 6 6 6 6 6 6 5 6 7 6 8 10 8 5 6 6 5 5 3 3 4 5 5 3 5 7 8 10 11 10 8 7 7 8 10 10 10 10 10 8 8 12 15 14 14 14 14 13 12 10
7 8 9 10 11 11 11 11 10 8 6 5 4 4 4 5 7 6 3 2 4 5 5 7 9 6 2 5 5 4 4 4 3 2 3 5 6 6 7 6 6 8 9 9 9 9 9 11 12 12 12 12 11 13 15 16 15 14 14 13 12 11 9
7 7 9 9 10 11 11 11 10 8 6 5 4 2 3 6 7 7 4 1 2 3 4 7 9 5 2 2 2 2 3 2 3 1 1 3 4 4 5 3 2 5 7 7 8 8 8 9 10 11 13 14 15 15 15 15 14 13 12 11 11 10 8
Wind_Direction
200 195 192 189 189 189 188 188 187 186 183 182 184 183 182 183 181 181 185 186 184 182 183 185 186 188 190 188 189 188 186 189 189 192 187 174 180 190 189 192 192 188 180 178 189 185 182 195 208 220 218 225 238 211 201 208 208 208 201 205 215 213 207
201 194 193 189 187 189 188 187 187 184 181 182 185 184 183 184 181 180 186 187 185 184 184 185 185 187 190 190 191 191 190 192 190 194 193 182 186 194 192 198 197 190 189 191 196 191 188 204 215 223 231 232 234 216 204 216 215 211 215 217 217 214 209
199 195 195 192 188 189 187 186 186 183 181 182 184 184 184 186 183 182 188 188 186 186 183 185 186 186 189 190 192 195 192 192 193 196 198 191 192 196 193 200 201 191 198 207 210 202 199 206 209 214 223 216 217 223 220 229 223 213 220 225 224 227 217
197 196 195 195 192 189 186 187 186 183 182 182 183 183 183 186 184 184 190 189 187 187 184 186 188 186 189 190 192 197 193 193 197 198 202 200 200 201 194 198 205 200 202 214 222 212 204 211 210 208 211 207 212 224 226 229 228 224 225 223 226 238 238
195 194 194 194 192 190 188 188 186 183 181 182 182 182 182 184 182 183 188 189 188 188 185 185 185 185 190 191 191 198 196 195 196 195 203 208 211 210 201 201 209 207 208 217 221 214 209 214 213 214 218 211 212 221 227 232 234 231 229 228 231 235 243
191 194 197 193 190 193 193 189 186 181 180 182 183 182 181 181 181 181 185 186 186 187 185 183 184 186 191 191 190 196 202 202 197 193 197 207 220 216 202 207 216 213 217 222 221 222 223 214 204 220 235 220 215 226 229 229 237 241 230 229 234 226 235
186 192 199 193 189 195 194 186 183 181 181 183 182 181 179 179 181 181 183 186 185 186 185 184 188 191 192 195 195 195 203 209 204 199 197 199 214 216 202 209 219 212 216 222 219 221 231 225 208 220 234 221 224 241 239 221 230 248 242 236 240 225 230
183 190 197 193 188 188 186 183 183 181 180 180 179 180 178 179 183 183 183 185 184 185 186 185 192 197 193 196 200 197 201 208 206 206 206 202 208 214 208 213 219 216 216 221 219 217 226 233 219 219 227 222 235 251 246 228 235 248 248 242 247 237 233
184 188 189 190 188 183 182 189 191 181 177 178 177 178 177 178 183 184 186 188 187 187 189 188 192 196 193 193 199 200 200 204 205 205 209 210 212 216 215 217 220 220 219 220 224 224 227 230 222 227 234 224 231 246 244 240 247 252 248 244 249 250 245
184 177 153 159 178 186 184 185 182 176 179 183 181 179 178 176 177 182 188 191 188 187 190 193 194 194 195 194 198 204 203 202 206 207 206 209 215 219 219 222 223 226 227 226 227 228 230 232 225 230 240 231 226 236 238 239 248 252 248 247 248 248 249
181 161 144 155 166 176 177 175 176 176 180 184 183 182 181 178 177 182 188 189 189 192 193 194 195 195 197 198 197 203 206 204 208 210 207 208 215 218 219 224 228 229 231 231 232 231 235 245 240 228 239 243 238 239 240 240 247 251 248 248 251 252 252
170 149 146 162 167 167 165 166 172 173 174 179 183 183 177 173 177 182 186 185 185 192 193 191 194 196 200 204 201 199 202 206 209 211 211 214 219 218 217 226 233 234 234 233 235 236 235 245 246 233 238 248 247 245 246 247 249 249 247 244 246 255 257
156 148 148 164 174 173 165 158 159 158 160 169 176 180 178 175 178 182 185 184 185 190 192 191 195 198 202 207 207 203 203 206 208 211 213 217 223 221 216 221 228 233 238 236 235 239 237 238 243 242 245 251 254 250 246 249 252 251 249 245 240 249 256
150 149 144 151 167 178 179 172 164 153 148 152 158 164 172 176 179 183 186 190 196 199 199 198 199 201 205 209 209 207 209 210 209 212 215 218 226 230 225 220 217 220 231 238 238 242 242 239 242 247 247 248 256 258 246 244 252 252 251 250 243 242 249
152 153 148 145 153 166 174 176 175 168 161 165 162 156 161 170 176 184 188 196 203 201 202 208 209 207 209 211 210 211 215 216 212 214 219 220 224 233 236 230 222 218 220 228 237 241 244 244 244 248 250 247 255 262 253 245 250 254 255 255 253 247 243
155 156 152 147 147 154 161 167 176 179 181 191 183 173 174 178 178 180 182 188 194 193 199 211 216 215 215 216 216 216 217 218 214 214 219 222 224 228 236 237 231 226 224 225 227 230 235 239 238 242 250 251 254 261 259 251 250 254 259 261 262 261 249
140 139 138 138 138 141 148 155 166 173 178 190 193 196 203 201 197 196 194 196 200 198 199 204 208 213 217 220 222 222 222 223 220 218 219 223 226 230 235 239 239 237 236 233 231 229 230 233 234 238 245 250 256 260 257 251 245 245 251 255 255 257 255
110 111 120 125 127 129 135 142 149 156 161 165 178 197 209 209 208 210 211 215 221 220 215 213 215 218 220 223 225 225 225 225 226 227 225 225 227 230 234 238 240 243 244 244 243 239 236 235 235 238 241 243 248 252 251 249 247 242 242 246 250 254 257
112 106 114 118 118 124 126 125 129 133 138 141 148 173 192 197 196 197 203 212 219 223 223 223 226 228 230 231 232 230 228 228 231 234 234 234 233 234 236 238 241 244 245 246 247 246 245 242 239 239 241 240 241 246 250 253 255 251 244 246 252 255 257
119 100 100 103 105 112 116 118 124 122 117 116 124 162 188 194 194 195 201 205 206 211 218 224 228 232 236 236 235 237 239 238 240 243 245 245 244 244 245 246 247 249 249 249 249 248 247 246 243 241 241 241 241 243 246 251 257 256 249 248 250 251 254
122 109 104 102 99 101 106 116 129 125 113 112 123 167 188 192 196 199 205 210 213 219 225 228 229 233 237 237 238 242 243 240 239 242 246 249 247 247 248 248 248 249 250 250 250 248 245 244 244 244 242 242 242 241 242 247 251 252 250 249 249 250 252
117 111 106 105 104 100 96 96 107 116 117 120 129 152 159 164 182 197 210 220 224 229 232 230 231 230 229 231 234 237 238 238 240 244 247 249 246 242 242 245 246 246 247 248 247 245 243 243 244 247 245 243 242 242 243 246 248 249 250 250 250 250 252
109 107 102 103 107 106 101 94 89 90 97 104 105 102 100 102 113 142 182 209 222 235 239 238 242 238 233 233 235 237 237 238 242 247 247 245 242 239 242 247 246 242 243 246 246 243 241 241 242 244 243 241 240 240 240 242 244 247 250 250 250 250 252
98 103 106 108 109 110 111 106 99 94 94 94 92 87 85 83 82 87 96 97 86 78 117 177 213 211 207 211 215 222 230 233 237 241 240 237 237 240 244 245 243 241 241 245 249 246 242 241 242 241 238 236 237 237 236 238 242 246 249 251 250 251 254
106 111 115 114 110 109 112 112 108 105 100 92 84 78 77 79 79 79 80 79 75 76 90 108 127 149 164 168 172 189 204 207 215 223 227 233 240 248 253 251 248 246 245 246 248 248 248 246 241 235 231 230 231 231 233 237 241 242 246 249 251 252 254
118 122 121 115 106 101 103 108 111 113 114 107 92 83 81 83 85 83 81 81 78 78 87 102 116 127 142 156 176 191 185 172 176 187 193 217 241 225 76 24 262 248 241 242 244 246 255 251 231 217 215 220 223 222 225 230 234 237 240 245 248 251 252
114 115 115 110 100 93 93 100 106 110 112 110 104 100 99 101 100 94 89 89 88 86 91 106 116 115 125 152 179 191 176 155 152 155 146 110 91 95 105 108 109 159 204 228 236 236 243 229 188 184 195 203 207 212 219 223 229 236 241 246 250 254 258
110 109 109 106 105 104 104 101 98 96 98 99 99 98 100 104 105 101 97 96 93 92 94 100 105 104 104 112 118 118 115 114 125 139 139 121 103 94 98 110 113 129 171 192 228 223 210 174 138 133 154 177 184 205 224 227 234 242 245 249 252 253 254
120 117 114 109 110 114 112 107 102 99 98 98 98 98 100 105 108 107 104 101 97 99 102 100 99 101 100 96 93 90 89 88 94 104 113 118 112 100 93 101 102 88 87 95 108 143 152 139 122 102 85 76 65 45 245 231 233 238 236 234 235 228 219
131 131 128 121 120 121 115 112 112 108 105 105 105 108 109 110 115 118 115 110 107 107 108 104 100 100 101 96 88 81 77 78 87 88 79 82 94 97 97 102 105 101 89 84 95 107 99 91 91 81 59 40 39 16 321 226 190 198 200 190 187 182 172
136 137 135 128 128 127 121 117 115 110 109 105 100 106 111 111 114 119 117 115 116 114 112 112 109 102 100 99 94 83 70 61 65 78 83 78 71 68 74 79 100 135 118 99 104 114 107 97 95 101 108 106 81 27 350 15 156 180 180 170 166 165 164
143 140 138 138 137 132 126 126 124 120 115 106 96 98 105 108 114 118 116 114 114 112 111 111 107 101 97 94 88 84 80 68 59 66 74 70 56 48 62 71 62 142 147 135 134 128 118 112 107 123 137 134 122 225 313 328 268 231 183 168 167 184 189
150 146 140 141 144 142 140 137 131 126 120 113 108 100 97 107 117 115 107 101 103 112 116 106 91 83 85 84 79 79 82 82 72 62 55 50 45 40 53 66 56 32 206 189 180 158 139 136 132 142 151 144 157 275 261 247 244 250 249 250 287 310 286
148 149 145 144 144 146 149 144 139 139 136 130 127 114 99 111 120 116 111 113 116 120 118 109 96 80 72 68 64 65 63 64 74 75 63 55 89 115 98 71 61 355 275 237 188 177 175 178 182 188 182 166 145 257 266 256 245 250 261 271 292 313 316
142 145 148 152 152 153 156 155 153 152 143 132 124 109 101 109 118 115 114 117 118 113 113 118 118 107 88 78 80 83 76 65 65 113 102 96 159 203 199 190 209 249 290 312 224 193 189 191 196 205 212 210 203 228 258 268 271 268 270 280 295 303 305
151 152 152 156 161 163 163 165 167 163 151 141 133 124 119 118 119 118 111 101 101 103 108 119 119 112 119 144 150 141 131 146 235 219 156 145 194 227 220 219 232 249 266 276 266 244 221 215 223 233 236 239 245 254 261 269 277 278 278 283 288 291 297
163 170 169 168 170 172 171 171 174 178 176 166 151 138 127 118 125 141 159 125 102 102 102 111 110 105 140 172 177 188 188 208 258 250 187 204 225 246 257 250 243 257 271 279 279 269 250 242 248 255 258 260 261 258 259 264 271 276 279 281 283 287 293
174 181 184 183 181 182 182 181 186 195 198 192 189 176 144 140 151 171 198 220 95 112 116 110 108 112 176 213 221 188 179 242 303 41 136 231 234 247 272 287 329 326 311 300 294 289 279 270 266 263 263 264 265 265 265 267 271 275 278 280 283 288 290
Height
1522 1523 1525 1528 1531 1533 1535 1538 1540 1542 1545 1547 1549 1551 1554 1555 1556 1558 1559 1561 1563 1564 1566 1568 1570 1571 1573 1575 1576 1578 1579 1581 1582 1583 1584 1585 1587 1589 1590 1591 1591 1592 1592 1593 1594 1594 1595 1595 1596 1596 1597 1598 1598 1599 1599 1599 1599 1600 1601 1602 1603 1603 1604
1519 1521 1523 1526 1529 1531 1534 1536 1539 1541 1543 1546 1548 1550 1552 1554 1555 1557 1558 1560 1561 1563 1565 1567 1569 1570 1572 1574 1576 1577 1579 1580 1581 1582 1584 1585 1587 1589 1590 1591 1591 1592 1592 1592 1593 1594 1594 1595 1595 1596 1597 1597 1598 1598 1599 1599 1599 1600 1600 1601 1602 1602 1603
1517 1519 1521 1524 1527 1530 1533 1535 1537 1539 1541 1544 1546 1549 1551 1553 1554 1556 1557 1559 1560 1562 1564 1566 1568 1569 1571 1573 1575 1576 1578 1579 1581 1582 1584 1585 1587 1588 1589 1590 1591 1592 1592 1592 1593 1594 1594 1594 1595 1595 1596 1597 1597 1598 1598 1599 1599 1600 1600 1601 1601 1602 1602
1517 1519 1521 1525 1526 1529 1532 1533 1536 1538 1540 1543 1545 1548 1550 1551 1554 1556 1557 1558 1559 1561 1563 1565 1567 1568 1571 1572 1574 1576 1577 1579 1580 1582 1584 1585 1586 1588 1588 1589 1590 1591 1592 1592 1592 1593 1593 1594 1594 1595 1596 1596 1597 1597 1598 1598 1599 1599 1600 1600 1601 1601 1601
1516 1519 1522 1524 1525 1528 1530 1532 1535 1537 1539 1542 1544 1547 1549 1550 1553 1555 1557 1558 1559 1561 1562 1564 1566 1568 1569 1571 1573 1575 1576 1578 1580 1581 1583 1584 1586 1587 1588 1589 1590 1590 1591 1592 1592 1592 1593 1594 1594 1595 1595 1596 1596 1597 1597 1598 1598 1598 1599 1599 1600 1600 1601
1515 1518 1520 1522 1524 1527 1530 1532 1534 1535 1538 1541 1543 1546 1548 1550 1552 1554 1556 1558 1559 1561 1562 1564 1566 1567 1569 1571 1572 1574 1575 1577 1579 1581 1583 1584 1585 1586 1587 1588 1589 1590 1590 1591 1591 1592 1592 1593 1594 1594 1595 1595 1596 1596 1597 1597 1597 1598 1598 1599 1599 1600 1600
1514 1516 1517 1520 1524 1526 1528 1531 1533 1535 1538 1540 1543 1545 1546 1549 1552 1554 1556 1558 1559 1561 1562 1564 1566 1566 1568 1570 1571 1573 1574 1576 1578 1580 1581 1583 1584 1585 1586 1587 1588 1589 1590 1590 1591 1592 1592 1593 1593 1594 1595 1595 1596 1596 1596 1596 1597 1597 1598 1598 1599 1599 1599
1513 1514 1516 1519 1523 1525 1527 1530 1533 1535 1536 1540 1543 1544 1547 1549 1551 1553 1555 1557 1559 1561 1562 1564 1565 1566 1567 1569 1570 1571 1573 1575 1577 1578 1580 1582 1583 1584 1585 1586 1587 1589 1590 1590 1591 1591 1592 1592 1593 1594 1595 1595 1595 1595 1596 1596 1596 1597 1597 1597 1598 1598 1599
1511 1513 1516 1519 1522 1525 1529 1532 1533 1534 1536 1541 1542 1542 1545 1548 1550 1553 1555 1556 1558 1560 1562 1564 1565 1565 1566 1568 1569 1570 1572 1574 1575 1577 1579 1580 1582 1583 1584 1586 1587 1588 1588 1589 1590 1591 1591 1592 1593 1593 1594 1594 1595 1595 1595 1595 1595 1596 1596 1596 1597 1597 1598
1509 1514 1517 1520 1525 1528 1531 1533 1533 1534 1537 1541 1542 1542 1544 1548 1550 1552 1554 1555 1557 1559 1561 1563 1564 1565 1566 1567 1568 1569 1571 1573 1574 1576 1577 1579 1581 1582 1583 1585 1586 1587 1588 1588 1590 1590 1591 1591 1592 1593 1593 1593 1594 1594 1594 1594 1595 1595 1596 1596 1596 1597 1597
1509 1514 1517 1522 1528 1530 1530 1531 1533 1535 1538 1540 1542 1543 1545 1548 1551 1553 1554 1555 1557 1557 1559 1562 1563 1564 1565 1566 1567 1568 1569 1571 1573 1574 1576 1577 1579 1581 1582 1584 1585 1586 1587 1588 1589 1590 1590 1591 1591 1592 1592 1592 1593 1593 1594 1594 1594 1594 1595 1595 1596 1596 1597
1512 1514 1518 1522 1526 1529 1529 1530 1533 1536 1537 1539 1541 1543 1544 1547 1551 1553 1554 1554 1556 1556 1558 1561 1562 1563 1564 1565 1566 1567 1568 1570 1571 1573 1574 1576 1578 1579 1581 1583 1584 1585 1586 1587 1588 1589 1590 1590 1590 1591 1591 1591 1592 1592 1593 1593 1593 1594 1594 1595 1595 1595 1596
1514 1516 1520 1522 1525 1528 1529 1531 1533 1535 1537 1539 1541 1543 1544 1545 1548 1551 1552 1553 1554 1556 1557 1559 1560 1561 1563 1564 1564 1566 1567 1569 1570 1572 1573 1575 1576 1577 1579 1581 1583 1584 1585 1586 1587 1588 1589 1590 1590 1590 1591 1591 1591 1592 1592 1592 1593 1593 1593 1594 1594 1594 1595
1515 1518 1522 1523 1526 1528 1529 1531 1535 1536 1538 1539 1541 1543 1544 1545 1546 1548 1550 1552 1553 1555 1557 1558 1558 1559 1561 1562 1563 1564 1565 1567 1569 1571 1572 1573 1574 1576 1577 1578 1580 1582 1583 1585 1586 1587 1588 1589 1590 1590 1590 1590 1590 1591 1591 1591 1592 1592 1592 1593 1593 1594 1594
1513 1516 1520 1523 1525 1528 1529 1532 1535 1536 1539 1541 1541 1543 1544 1545 1546 1548 1550 1552 1553 1555 1556 1557 1557 1558 1559 1560 1561 1562 1564 1565 1567 1569 1571 1572 1573 1574 1575 1577 1578 1579 1581 1583 1584 1586 1587 1588 1589 1590 1590 1590 1590 1590 1590 1591 1591 1591 1591 1592 1592 1593 1594
1512 1514 1518 1521 1524 1527 1529 1532 1535 1537 1540 1541 1542 1542 1544 1546 1547 1548 1550 1552 1553 1554 1555 1556 1556 1557 1558 1559 1560 1561 1562 1564 1565 1567 1568 1569 1571 1572 1573 1575 1576 1578 1579 1580 1581 1583 1584 1586 1587 1588 1589 1590 1590 1590 1589 1589 1590 1590 1590 1591 1591 1592 1593
1514 1517 1520 1522 1525 1527 1530 1532 1534 1537 1539 1540 1541 1543 1544 1546 1547 1548 1549 1550 1551 1552 1553 1554 1555 1556 1557 1558 1559 1560 1561 1562 1564 1565 1566 1567 1569 1570 1571 1573 1574 1575 1577 1578 1580 1581 1582 1583 1585 1586 1588 1589 1589 1589 1588 1588 1589 1589 1589 1590 1590 1591 1592
1517 1520 1523 1525 1527 1528 1530 1533 1534 1537 1539 1539 1541 1542 1544 1545 1546 1547 1548 1548 1549 1550 1552 1553 1554 1554 1555 1556 1558 1559 1560 1561 1562 1563 1565 1566 1567 1568 1569 1571 1572 1574 1575 1577 1578 1579 1580 1582 1583 1585 1586 1586 1586 1585 1585 1586 1588 1588 1588 1589 1589 1590 1590
1520 1523 1524 1525 1527 1528 1530 1533 1535 1537 1538 1539 1540 1541 1543 1544 1545 1545 1545 1546 1547 1548 1549 1551 1552 1553 1553 1554 1556 1557 1558 1559 1561 1562 1564 1565 1566 1567 1568 1569 1570 1571 1573 1574 1576 1577 1579 1580 1581 1582 1583 1583 1583 1583 1583 1584 1586 1587 1587 1587 1588 1588 1589
1521 1524 1525 1526 1527 1529 1530 1533 1535 1537 1538 1539 1540 1541 1542 1543 1543 1544 1545 1545 1546 1547 1547 1548 1549 1551 1552 1553 1554 1556 1557 1558 1559 1561 1562 1564 1565 1565 1566 1567 1567 1568 1570 1571 1573 1574 1576 1577 1579 1580 1581 1582 1582 1582 1582 1583 1584 1585 1586 1586 1586 1587 1587
1521 1523 1525 1527 1529 1531 1532 1533 1535 1537 1538 1540 1541 1541 1542 1543 1543 1544 1544 1545 1546 1546 1546 1547 1548 1549 1551 1552 1553 1555 1555 1556 1557 1559 1560 1562 1563 1563 1563 1563 1564 1565 1567 1568 1569 1571 1573 1574 1576 1577 1579 1580 1580 1580 1580 1581 1582 1583 1584 1584 1585 1585 1586
1523 1525 1526 1528 1530 1531 1532 1534 1535 1537 1539 1541 1542 1542 1542 1542 1543 1543 1544 1544 1545 1545 1545 1546 1546 1547 1549 1550 1551 1552 1553 1554 1556 1557 1558 1559 1560 1561 1560 1560 1561 1562 1564 1565 1566 1568 1569 1570 1571 1573 1576 1578 1578 1578 1578 1579 1580 1581 1582 1583 1583 1583 1584
1526 1528 1528 1529 1530 1530 1531 1533 1535 1538 1540 1541 1542 1542 1542 1542 1542 1543 1543 1543 1544 1544 1544 1544 1545 1547 1548 1549 1550 1550 1551 1552 1554 1555 1555 1556 1557 1557 1557 1557 1559 1560 1561 1563 1564 1565 1565 1566 1567 1569 1572 1574 1574 1574 1575 1576 1578 1578 1579 1580 1581 1581 1582
1528 1530 1530 1530 1531 1531 1531 1532 1533 1536 1540 1542 1543 1543 1542 1542 1542 1542 1543 1543 1543 1544 1544 1544 1544 1545 1547 1548 1548 1548 1549 1550 1551 1552 1553 1553 1554 1554 1554 1556 1557 1559 1560 1562 1562 1562 1563 1563 1564 1566 1567 1569 1569 1571 1572 1574 1575 1576 1577 1578 1578 1579 1579
1529 1531 1531 1532 1532 1532 1533 1532 1532 1534 1537 1541 1543 1543 1543 1543 1542 1542 1542 1543 1544 1544 1544 1544 1544 1544 1545 1546 1547 1547 1548 1548 1549 1550 1551 1552 1552 1552 1554 1555 1557 1558 1560 1560 1560 1560 1560 1560 1559 1560 1562 1564 1565 1567 1569 1571 1572 1573 1574 1575 1576 1577 1577
1531 1531 1532 1533 1534 1534 1535 1535 1534 1535 1536 1539 1542 1543 1544 1543 1543 1542 1542 1543 1544 1545 1545 1545 1545 1545 1546 1547 1547 1548 1547 1547 1548 1549 1550 1551 1552 1553 1554 1555 1557 1559 1559 1559 1558 1558 1558 1558 1555 1554 1557 1560 1562 1564 1567 1568 1569 1571 1572 1573 1574 1575 1575
1534 1534 1534 1534 1535 1536 1537 1537 1537 1537 1537 1539 1541 1544 1545 1544 1544 1543 1543 1543 1544 1545 1546 1546 1546 1547 1547 1547 1548 1548 1548 1548 1549 1550 1550 1551 1552 1553 1555 1556 1557 1558 1558 1558 1558 1558 1558 1557 1554 1553 1555 1558 1560 1562 1564 1565 1567 1569 1570 1571 1572 1573 1573
1535 1536 1536 1536 1536 1538 1539 1540 1540 1540 1540 1542 1544 1545 1545 1546 1545 1545 1544 1544 1545 1546 1547 1547 1548 1548 1548 1548 1549 1549 1550 1550 1551 1551 1551 1551 1552 1554 1555 1556 1557 1557 1557 1558 1558 1557 1558 1558 1557 1556 1557 1559 1560 1562 1563 1564 1565 1567 1568 1569 1571 1571 1571
1537 1538 1538 1538 1539 1540 1541 1542 1543 1544 1545 1546 1546 1545 1545 1546 1547 1546 1546 1546 1546 1547 1547 1548 1549 1549 1549 1550 1550 1550 1551 1552 1552 1553 1553 1552 1553 1554 1555 1556 1556 1557 1557 1557 1557 1558 1558 1559 1559 1560 1560 1561 1562 1562 1562 1563 1564 1565 1566 1568 1569 1570 1570
1538 1540 1540 1540 1541 1543 1543 1545 1545 1546 1547 1547 1546 1546 1546 1547 1547 1547 1547 1548 1548 1548 1548 1548 1549 1550 1551 1551 1551 1551 1552 1552 1553 1554 1555 1555 1555 1555 1555 1556 1557 1557 1557 1558 1558 1559 1559 1561 1562 1562 1562 1563 1563 1563 1563 1563 1563 1564 1566 1567 1568 1569 1569
1540 1541 1541 1542 1544 1544 1545 1547 1547 1547 1548 1547 1547 1548 1548 1548 1549 1548 1548 1549 1549 1550 1550 1550 1550 1551 1551 1552 1552 1552 1553 1553 1554 1555 1556 1557 1557 1557 1557 1557 1558 1558 1558 1558 1559 1559 1560 1562 1563 1564 1564 1565 1564 1563 1564 1564 1564 1564 1566 1567 1567 1568 1569
1541 1542 1542 1544 1545 1546 1547 1548 1548 1549 1549 1549 1549 1549 1549 1550 1550 1550 1550 1550 1551 1551 1552 1552 1552 1552 1552 1552 1553 1553 1553 1554 1555 1556 1557 1557 1558 1558 1558 1558 1558 1559 1559 1559 1559 1559 1560 1561 1563 1563 1565 1566 1565 1565 1565 1564 1564 1564 1565 1567 1567 1568 1568
1542 1543 1543 1544 1545 1546 1548 1548 1549 1549 1549 1550 1550 1550 1550 1551 1551 1551 1552 1552 1552 1553 1553 1554 1554 1553 1553 1553 1553 1553 1554 1554 1555 1556 1557 1557 1557 1558 1558 1558 1559 1559 1559 1559 1560 1559 1559 1561 1562 1563 1564 1564 1564 1565 1565 1565 1565 1565 1566 1567 1567 1567 1567
1544 1544 1544 1545 1546 1547 1548 1549 1550 1550 1550 1550 1550 1550 1551 1551 1551 1552 1552 1553 1553 1553 1554 1554 1555 1555 1555 1554 1554 1554 1555 1555 1556 1556 1557 1558 1558 1558 1558 1558 1559 1559 1558 1559 1559 1560 1560 1561 1562 1562 1563 1562 1563 1565 1565 1565 1566 1566 1566 1566 1566 1566 1565
1544 1545 1545 1546 1547 1548 1549 1549 1550 1550 1550 1550 1550 1551 1551 1552 1552 1553 1553 1553 1554 1554 1554 1554 1555 1555 1556 1556 1556 1556 1556 1556 1556 1556 1557 1558 1558 1558 1558 1558 1559 1559 1559 1559 1560 1560 1560 1561 1561 1561 1561 1561 1562 1564 1565 1565 1565 1565 1565 1565 1565 1565 1564
1545 1546 1546 1547 1548 1549 1549 1550 1550 1550 1550 1551 1550 1551 1552 1552 1553 1553 1553 1554 1554 1554 1554 1554 1554 1555 1556 1556 1556 1556 1556 1556 1556 1556 1556 1557 1557 1557 1558 1558 1558 1559 1559 1559 1559 1559 1560 1560 1560 1560 1560 1560 1560 1561 1564 1565 1565 1564 1564 1564 1563 1563 1562
1545 1546 1547 1547 1548 1549 1549 1550 1550 1550 1551 1551 1550 1551 1552 1552 1553 1553 1553 1554 1554 1554 1554 1554 1554 1555 1556 1555 1555 1556 1555 1555 1555 1555 1556 1556 1556 1556 1557 1557 1558 1558 1558 1558 1558 1558 1559 1559 1559 1559 1559 1558 1559 1560 1562 1563 1563 1563 1563 1562 1562 1562 1561
1545 1546 1547 1547 1548 1549 1549 1550 1550 1551 1551 1551 1551 1551 1551 1552 1553 1553 1553 1553 1553 1553 1554 1554 1554 1556 1556 1555 1555 1555 1555 1555 1554 1554 1555 1555 1555 1556 1556 1557 1557 1558 1558 1558 1558 1558 1558 1558 1558 1558 1558 1558 1558 1559 1560 1561 1561 1561 1561 1560 1560 1560 1560